Track FLOCK 4V 11 now! 10-day predictions FLOCK 4V 11 is classified as:
1 46285U 20061P 21022.82459958 .00001504 00000-0 95948-4 0 9990 2 46285 97.5048 99.1898 0003175 193.9706 166.1436 15.10182696 21363